Location: Brahman Valley
(40.6513°N, 111.8855°W)
Time: 16:20:21
(UTC+00:00)

DOVE 4 - Visible Passes

Search period start: 24 June 2021 00:00
Search period end: 04 July 2021 00:00
Orbit: 587 x 802 km, 97.8° (Epoch: 22 June)

Date Brightness Start Highest point End Pass type
(mag) Time Alt. Az. Time Alt. Az. Time Alt. Az.
24 Jun ? 08:12:45 10° NNE 08:16:43 79° N 08:16:43 79° N visible
25 Jun ? 07:16:09 10° NE 07:18:43 21° E 07:18:43 21° E visible
25 Jun ? 08:53:23 10° N 08:57:07 31° WNW 08:57:26 31° W visible
26 Jun ? 07:55:38 10° NNE 07:59:26 57° ENE 07:59:26 57° ENE visible
26 Jun ? 09:35:16 10° NW 09:37:04 12° WNW 09:38:09 12° W visible
27 Jun ? 06:59:48 10° ENE 07:01:26 14° E 07:01:26 14° E visible
27 Jun ? 08:35:58 10° N 08:40:05 47° WNW 08:40:09 47° WNW visible
28 Jun ? 07:38:40 10° NNE 07:42:09 37° E 07:42:09 37° E visible
28 Jun ? 09:17:07 10° NNW 09:20:06 19° WNW 09:20:52 18° W visible
29 Jun ? 08:18:41 10° N 08:22:52 73° WNW 08:22:52 73° WNW visible
30 Jun ? 07:21:51 10° NE 07:24:52 25° E 07:24:52 25° E visible
30 Jun ? 08:59:26 10° NNW 09:03:07 27° WNW 09:03:35 27° W visible
01 Jul ? 08:01:32 10° NNE 08:05:35 69° ENE 08:05:35 69° ENE visible
01 Jul ? 09:41:45 10° NW 09:43:01 11° WNW 09:44:17 10° W visible
02 Jul ? 07:05:16 10° NE 07:07:35 17° E 07:07:35 17° E visible
02 Jul ? 08:41:58 10° N 08:46:06 41° WNW 08:46:18 41° W visible
03 Jul ? 07:44:29 10° NNE 07:48:18 46° ENE 07:48:18 46° ENE visible
03 Jul ? 09:23:17 10° NNW 09:26:06 17° WNW 09:27:00 16° W visible
